SWR2PH LOWG-LSZH

Flight info

Callsign SWR2PH
Flight time 0h 56m
Altitude 30000
Route ABIRI DCT ERKIR L608 KPT L856 NEGRA
Aircraft A320/M-SDE3FGHIRWY/LB1

Departure

Time 2026-05-06 16:57
Airport Graz Airport (LOWG)

Arrival

Time 2026-05-06 17:54
Airport Zürich Airport (LSZH)
Time Latitude Longitude Altitude Speed Heading
2026-05-06 16:45 46.99730 15.44283 1115 ft 0 kts 169°
2026-05-06 16:50 46.99751 15.44277 1106 ft 4 kts 169°
2026-05-06 16:50 46.99777 15.44270 1107 ft 4 kts 172°
2026-05-06 16:50 46.99801 15.44267 1114 ft 2 kts 191°
2026-05-06 16:50 46.99812 15.44272 1112 ft 2 kts 232°
2026-05-06 16:51 46.99817 15.44286 1108 ft 2 kts 255°
2026-05-06 16:51 46.99820 15.44301 1109 ft 2 kts 258°
2026-05-06 16:51 46.99821 15.44309 1112 ft 0 kts 259°
2026-05-06 16:53 46.99818 15.44281 1112 ft 5 kts 259°
2026-05-06 16:53 46.99810 15.44220 1116 ft 7 kts 260°
2026-05-06 16:54 46.99832 15.44168 1115 ft 6 kts 336°
2026-05-06 16:54 46.99921 15.44141 1110 ft 19 kts 349°
2026-05-06 16:54 47.00044 15.44108 1114 ft 17 kts 349°
2026-05-06 16:54 47.00149 15.44079 1113 ft 14 kts 349°
2026-05-06 16:55 47.00238 15.44055 1119 ft 12 kts 349°
2026-05-06 16:55 47.00303 15.44016 1120 ft 9 kts 316°
2026-05-06 16:55 47.00340 15.43953 1117 ft 7 kts 308°
2026-05-06 16:55 47.00368 15.43890 1115 ft 10 kts 303°
2026-05-06 16:56 47.00419 15.43779 1117 ft 16 kts 304°
2026-05-06 16:56 47.00409 15.43628 1121 ft 11 kts 220°
2026-05-06 16:56 47.00339 15.43621 1123 ft 11 kts 171°
2026-05-06 16:56 47.00244 15.43647 1122 ft 21 kts 170°
2026-05-06 16:57 46.99874 15.43750 1113 ft 87 kts 169°
2026-05-06 16:57 46.99086 15.43968 1102 ft 141 kts 168°
2026-05-06 16:57 46.98035 15.44285 1472 ft 158 kts 173°
2026-05-06 16:57 46.96958 15.44607 2250 ft 158 kts 172°
2026-05-06 16:58 46.95877 15.44869 2988 ft 157 kts 183°
2026-05-06 16:58 46.94834 15.44386 3385 ft 169 kts 212°
2026-05-06 16:58 46.93788 15.43428 3829 ft 179 kts 213°
2026-05-06 16:58 46.92714 15.42475 4439 ft 183 kts 214°
2026-05-06 16:59 46.91617 15.41516 5060 ft 185 kts 214°
2026-05-06 16:59 46.90481 15.40526 5591 ft 198 kts 214°
2026-05-06 16:59 46.89277 15.39478 6281 ft 204 kts 215°
2026-05-06 16:59 46.88048 15.38410 6981 ft 207 kts 217°
2026-05-06 17:00 46.87011 15.36982 7708 ft 208 kts 237°
2026-05-06 17:00 46.86352 15.34990 8082 ft 230 kts 249°
2026-05-06 17:00 46.85758 15.32688 8466 ft 252 kts 249°
2026-05-06 17:00 46.85125 15.30247 9177 ft 261 kts 249°
2026-05-06 17:01 46.84472 15.27744 9984 ft 265 kts 249°
2026-05-06 17:01 46.83792 15.25156 10439 ft 284 kts 249°
2026-05-06 17:01 46.83054 15.22355 10747 ft 306 kts 249°
2026-05-06 17:01 46.82275 15.19409 11327 ft 315 kts 248°
2026-05-06 17:02 46.81477 15.16400 12058 ft 320 kts 248°
2026-05-06 17:02 46.80668 15.13353 12813 ft 323 kts 248°
2026-05-06 17:02 46.79849 15.10276 13517 ft 328 kts 248°
2026-05-06 17:02 46.79016 15.07157 14157 ft 332 kts 248°
2026-05-06 17:03 46.78173 15.04009 14779 ft 335 kts 248°
2026-05-06 17:03 46.77346 15.00802 15407 ft 340 kts 252°
2026-05-06 17:03 46.76951 14.97384 16060 ft 345 kts 266°
2026-05-06 17:03 46.77181 14.93868 16715 ft 353 kts 281°
2026-05-06 17:04 46.77992 14.90461 17354 ft 359 kts 289°
2026-05-06 17:04 46.78949 14.87071 17988 ft 363 kts 289°
2026-05-06 17:04 46.79909 14.83643 18519 ft 367 kts 289°
2026-05-06 17:04 46.80874 14.80177 19025 ft 371 kts 289°
2026-05-06 17:05 46.81845 14.76670 19546 ft 374 kts 288°
2026-05-06 17:05 46.82821 14.73133 20036 ft 377 kts 289°
2026-05-06 17:05 46.83803 14.69563 20540 ft 381 kts 289°
2026-05-06 17:05 46.84793 14.65954 21035 ft 384 kts 288°
2026-05-06 17:06 46.85794 14.62305 21539 ft 388 kts 289°
2026-05-06 17:06 46.86804 14.58627 22044 ft 392 kts 288°
2026-05-06 17:06 46.87821 14.54918 22533 ft 395 kts 288°
2026-05-06 17:06 46.88845 14.51174 23000 ft 398 kts 288°
2026-05-06 17:07 46.89878 14.47395 23461 ft 402 kts 288°
2026-05-06 17:07 46.90915 14.43589 23876 ft 405 kts 288°
2026-05-06 17:07 46.91961 14.39750 24270 ft 407 kts 288°
2026-05-06 17:07 46.93012 14.35890 24668 ft 410 kts 288°
2026-05-06 17:08 46.94066 14.32008 25080 ft 411 kts 288°
2026-05-06 17:08 46.95122 14.28109 25487 ft 413 kts 288°
2026-05-06 17:08 46.96184 14.24182 25870 ft 415 kts 288°
2026-05-06 17:08 46.97250 14.20243 26262 ft 417 kts 288°
2026-05-06 17:09 46.98321 14.16279 26649 ft 419 kts 288°
2026-05-06 17:09 46.99395 14.12301 27039 ft 422 kts 288°
2026-05-06 17:09 47.00476 14.08295 27423 ft 423 kts 288°
2026-05-06 17:09 47.01560 14.04269 27823 ft 426 kts 288°
2026-05-06 17:10 47.02647 14.00220 28200 ft 428 kts 288°
2026-05-06 17:10 47.03737 13.96155 28545 ft 429 kts 288°
2026-05-06 17:10 47.04827 13.92070 28930 ft 431 kts 288°
2026-05-06 17:10 47.05917 13.87966 29276 ft 433 kts 288°
2026-05-06 17:11 47.07010 13.83838 29622 ft 435 kts 287°
2026-05-06 17:11 47.08097 13.79741 29819 ft 435 kts 287°
2026-05-06 17:11 47.09179 13.75677 29841 ft 421 kts 287°
2026-05-06 17:12 47.11280 13.67757 29834 ft 414 kts 287°
2026-05-06 17:12 47.13349 13.59882 29828 ft 413 kts 287°
2026-05-06 17:13 47.15452 13.51815 29825 ft 433 kts 287°
2026-05-06 17:13 47.17624 13.43494 29817 ft 438 kts 287°
2026-05-06 17:14 47.19818 13.35126 29805 ft 438 kts 287°
2026-05-06 17:14 47.22003 13.26778 29799 ft 437 kts 286°
2026-05-06 17:15 47.24181 13.18422 29791 ft 436 kts 286°
2026-05-06 17:15 47.26328 13.10079 29780 ft 436 kts 286°
2026-05-06 17:16 47.28464 13.01726 29758 ft 436 kts 286°
2026-05-06 17:16 47.30608 12.93368 29760 ft 436 kts 286°
2026-05-06 17:17 47.32739 12.85013 29746 ft 435 kts 286°
2026-05-06 17:17 47.34862 12.76639 29749 ft 435 kts 285°
2026-05-06 17:18 47.36988 12.68280 29746 ft 435 kts 285°
2026-05-06 17:18 47.39105 12.59916 29751 ft 434 kts 285°
2026-05-06 17:19 47.41206 12.51558 29751 ft 434 kts 285°
2026-05-06 17:19 47.43298 12.43195 29759 ft 434 kts 285°
2026-05-06 17:20 47.45386 12.34849 29750 ft 433 kts 285°
2026-05-06 17:20 47.47470 12.26492 29757 ft 433 kts 285°
2026-05-06 17:21 47.49543 12.18128 29756 ft 433 kts 285°
2026-05-06 17:21 47.51603 12.09771 29762 ft 432 kts 285°
2026-05-06 17:22 47.53635 12.01407 29770 ft 431 kts 282°
2026-05-06 17:22 47.54910 11.92864 29773 ft 427 kts 277°
2026-05-06 17:23 47.56119 11.84245 29781 ft 428 kts 277°
2026-05-06 17:23 47.57331 11.75628 29794 ft 428 kts 277°
2026-05-06 17:24 47.58326 11.68442 29812 ft 429 kts 276°
2026-05-06 17:24 47.59520 11.59785 29820 ft 429 kts 277°
2026-05-06 17:25 47.60707 11.51121 29830 ft 429 kts 276°
2026-05-06 17:25 47.61886 11.42447 29842 ft 429 kts 276°
2026-05-06 17:26 47.63029 11.33765 29843 ft 428 kts 276°
2026-05-06 17:26 47.64070 11.25076 29836 ft 427 kts 275°
2026-05-06 17:27 47.65092 11.16394 29838 ft 428 kts 275°
2026-05-06 17:27 47.66128 11.07703 29844 ft 428 kts 275°
2026-05-06 17:28 47.67169 10.98990 29846 ft 429 kts 275°
2026-05-06 17:28 47.68207 10.90265 29850 ft 429 kts 275°
2026-05-06 17:29 47.69227 10.81583 29852 ft 430 kts 275°
2026-05-06 17:29 47.70247 10.72825 29855 ft 431 kts 275°
2026-05-06 17:30 47.71267 10.64058 29853 ft 431 kts 275°
2026-05-06 17:30 47.72279 10.55272 29862 ft 432 kts 275°
2026-05-06 17:31 47.73278 10.46470 29869 ft 432 kts 275°
2026-05-06 17:31 47.73753 10.42288 29757 ft 427 kts 275°
2026-05-06 17:31 47.74244 10.37998 29476 ft 415 kts 275°
2026-05-06 17:31 47.74548 10.33818 29203 ft 400 kts 266°
2026-05-06 17:32 47.74478 10.29725 28928 ft 394 kts 263°
2026-05-06 17:32 47.74378 10.25649 28650 ft 392 kts 263°
2026-05-06 17:32 47.74281 10.21614 28385 ft 390 kts 263°
2026-05-06 17:32 47.74187 10.17601 28064 ft 386 kts 263°
2026-05-06 17:33 47.74095 10.13633 27567 ft 381 kts 264°
2026-05-06 17:33 47.74006 10.09720 27072 ft 377 kts 264°
2026-05-06 17:33 47.73916 10.05849 26595 ft 373 kts 264°
2026-05-06 17:33 47.73823 10.02011 26117 ft 369 kts 264°
2026-05-06 17:34 47.73728 9.98212 25658 ft 366 kts 264°
2026-05-06 17:34 47.73636 9.94506 25210 ft 363 kts 264°
2026-05-06 17:34 47.73544 9.90775 24765 ft 359 kts 264°
2026-05-06 17:34 47.73452 9.87083 24327 ft 356 kts 264°
2026-05-06 17:35 47.73360 9.83418 23886 ft 354 kts 264°
2026-05-06 17:35 47.73265 9.79774 23441 ft 352 kts 264°
2026-05-06 17:35 47.73169 9.76159 22959 ft 349 kts 264°
2026-05-06 17:36 47.72976 9.69022 22087 ft 342 kts 264°
2026-05-06 17:36 47.72881 9.65502 21648 ft 340 kts 264°
2026-05-06 17:36 47.72786 9.62004 21210 ft 338 kts 264°
2026-05-06 17:36 47.72689 9.58521 20765 ft 337 kts 264°
2026-05-06 17:37 47.72590 9.55059 20324 ft 335 kts 264°
2026-05-06 17:37 47.72489 9.51606 19872 ft 334 kts 264°
2026-05-06 17:37 47.72382 9.48163 19425 ft 333 kts 263°
2026-05-06 17:37 47.72107 9.45225 19042 ft 330 kts 253°
2026-05-06 17:38 47.71350 9.41967 18755 ft 335 kts 242°
2026-05-06 17:38 47.70172 9.39012 18462 ft 332 kts 231°
2026-05-06 17:38 47.68718 9.36350 18231 ft 332 kts 229°
2026-05-06 17:38 47.67259 9.33699 17966 ft 331 kts 229°
2026-05-06 17:39 47.65805 9.31050 17694 ft 331 kts 230°
2026-05-06 17:39 47.64354 9.28407 17427 ft 330 kts 230°
2026-05-06 17:39 47.62906 9.25774 17161 ft 328 kts 230°
2026-05-06 17:39 47.61480 9.23178 16813 ft 322 kts 230°
2026-05-06 17:40 47.60147 9.20522 16419 ft 321 kts 238°
2026-05-06 17:40 47.59207 9.17541 16003 ft 320 kts 250°
2026-05-06 17:40 47.58698 9.14328 15576 ft 321 kts 258°
2026-05-06 17:40 47.58305 9.11072 15147 ft 321 kts 258°
2026-05-06 17:41 47.57906 9.07816 14717 ft 321 kts 258°
2026-05-06 17:41 47.57665 9.04619 14306 ft 322 kts 268°
2026-05-06 17:41 47.57889 9.01318 13874 ft 324 kts 280°
2026-05-06 17:41 47.58492 8.98104 13413 ft 324 kts 284°
2026-05-06 17:42 47.59121 8.94906 12965 ft 322 kts 284°
2026-05-06 17:42 47.59742 8.91728 12528 ft 321 kts 283°
2026-05-06 17:42 47.60358 8.88557 12086 ft 319 kts 283°
2026-05-06 17:42 47.60970 8.85401 11652 ft 318 kts 283°
2026-05-06 17:43 47.61576 8.82263 11211 ft 316 kts 283°
2026-05-06 17:43 47.62178 8.79136 10771 ft 314 kts 283°
2026-05-06 17:43 47.62772 8.76041 10295 ft 308 kts 282°
2026-05-06 17:43 47.63351 8.73034 9681 ft 300 kts 282°
2026-05-06 17:44 47.63916 8.70099 9020 ft 293 kts 282°
2026-05-06 17:44 47.64467 8.67234 8507 ft 283 kts 282°
2026-05-06 17:44 47.64988 8.64520 8052 ft 272 kts 282°
2026-05-06 17:44 47.65494 8.61879 7592 ft 261 kts 282°
2026-05-06 17:45 47.65981 8.59338 7148 ft 252 kts 282°
2026-05-06 17:45 47.66450 8.56882 6707 ft 244 kts 283°
2026-05-06 17:45 47.66915 8.54457 6269 ft 246 kts 283°
2026-05-06 17:45 47.67414 8.52018 5797 ft 247 kts 284°
2026-05-06 17:46 47.68043 8.49641 5332 ft 251 kts 298°
2026-05-06 17:46 47.69062 8.47516 4886 ft 254 kts 303°
2026-05-06 17:46 47.70140 8.45431 4419 ft 255 kts 304°
2026-05-06 17:46 47.71214 8.43346 4030 ft 250 kts 304°
2026-05-06 17:47 47.72214 8.41400 3986 ft 222 kts 303°
2026-05-06 17:47 47.72907 8.39458 3993 ft 206 kts 278°
2026-05-06 17:47 47.72761 8.37442 3978 ft 192 kts 249°
2026-05-06 17:47 47.72220 8.35678 4007 ft 183 kts 244°
2026-05-06 17:48 47.71446 8.34264 3987 ft 179 kts 215°
2026-05-06 17:48 47.70301 8.33507 3987 ft 182 kts 201°
2026-05-06 17:48 47.69033 8.33306 3995 ft 185 kts 186°
2026-05-06 17:48 47.67729 8.33418 3990 ft 195 kts 177°
2026-05-06 17:49 47.66368 8.33801 3988 ft 201 kts 174°
2026-05-06 17:49 47.64996 8.34237 3989 ft 202 kts 174°
2026-05-06 17:49 47.63631 8.34788 4002 ft 207 kts 163°
2026-05-06 17:49 47.62343 8.35690 3999 ft 208 kts 159°
2026-05-06 17:50 47.61039 8.36683 4000 ft 208 kts 159°
2026-05-06 17:50 47.59797 8.37801 4000 ft 212 kts 147°
2026-05-06 17:50 47.58679 8.39247 3995 ft 214 kts 143°
2026-05-06 17:50 47.57604 8.40727 3939 ft 212 kts 142°
2026-05-06 17:51 47.56545 8.42187 3715 ft 204 kts 142°
2026-05-06 17:51 47.55535 8.43577 3463 ft 192 kts 142°
2026-05-06 17:51 47.54593 8.44871 3225 ft 177 kts 142°
2026-05-06 17:51 47.53737 8.46046 2985 ft 159 kts 142°
2026-05-06 17:52 47.52939 8.47137 2792 ft 154 kts 142°
2026-05-06 17:52 47.52161 8.48202 2578 ft 150 kts 141°
2026-05-06 17:52 47.51414 8.49234 2334 ft 144 kts 142°
2026-05-06 17:52 47.50661 8.50226 2133 ft 147 kts 142°
2026-05-06 17:53 47.49915 8.51290 1972 ft 152 kts 140°
2026-05-06 17:53 47.49133 8.52352 1741 ft 153 kts 142°
2026-05-06 17:53 47.48356 8.53405 1487 ft 149 kts 141°
2026-05-06 17:53 47.47638 8.54384 1403 ft 126 kts 138°
2026-05-06 17:54 47.47124 8.55088 1384 ft 80 kts 137°
2026-05-06 17:54 47.46763 8.55581 1398 ft 64 kts 137°
2026-05-06 17:54 47.46524 8.55883 1398 ft 32 kts 149°
2026-05-06 17:54 47.46344 8.55967 1405 ft 21 kts 167°
2026-05-06 17:55 47.46260 8.55998 1409 ft 11 kts 166°
2026-05-06 17:55 47.46194 8.56010 1406 ft 8 kts 176°
2026-05-06 17:55 47.46139 8.55997 1406 ft 8 kts 189°
2026-05-06 17:55 47.46054 8.55983 1407 ft 15 kts 185°
2026-05-06 17:56 47.45964 8.55966 1406 ft 12 kts 197°
2026-05-06 17:56 47.45928 8.55948 1409 ft 2 kts 198°
2026-05-06 17:56 47.45923 8.55946 1408 ft 0 kts 198°
2026-05-06 17:56 47.45901 8.55934 1410 ft 3 kts 200°
2026-05-06 17:57 47.45865 8.55915 1414 ft 13 kts 200°
2026-05-06 17:57 47.45766 8.55875 1409 ft 12 kts 186°
2026-05-06 17:57 47.45707 8.55866 1412 ft 8 kts 185°
2026-05-06 17:57 47.45628 8.55854 1409 ft 18 kts 186°
2026-05-06 17:58 47.45514 8.55864 1415 ft 15 kts 139°
2026-05-06 17:58 47.45487 8.55955 1413 ft 5 kts 140°
2026-05-06 17:58 47.45452 8.55952 1407 ft 5 kts 186°
2026-05-06 17:58 47.45418 8.55947 1407 ft 3 kts 186°
2026-05-06 17:59 47.45409 8.55946 1407 ft 0 kts 186°